Time,TemperatureF,DewpointF,PressureIn,WindDirection,WindDirectionDegrees,WindSpeedMPH,WindSpeedGustMPH,Humidity,HourlyPrecipIn,Conditions,Clouds,dailyrainin,SoftwareType,DateUTC
2013-01-16 00:03:00,34.0,29.0,30.14,ENE,63,1.0,4.0,81,0.14,,,0.56,,2013-01-16 05:03:00,
2013-01-16 00:12:00,34.0,29.0,30.14,ENE,63,1.0,4.0,81,0.14,,,0.56,,2013-01-16 05:12:00,
2013-01-16 00:22:00,34.0,29.0,30.13,ENE,63,1.0,3.0,81,0.15,,,0.54,,2013-01-16 05:22:00,
2013-01-16 00:32:00,34.0,29.0,30.13,ENE,63,1.0,3.0,81,0.15,,,0.57,,2013-01-16 05:32:00,
2013-01-16 00:42:00,34.0,29.0,30.13,ENE,63,1.0,3.0,81,0.15,,,0.57,,2013-01-16 05:42:00,
2013-01-16 00:53:00,34.0,29.0,30.11,ENE,63,0.0,2.0,81,0.15,,,0.61,,2013-01-16 05:53:00,
2013-01-16 01:02:00,34.0,29.0,30.10,ENE,63,0.0,1.0,82,0.15,,,0.63,,2013-01-16 06:02:00,
2013-01-16 01:12:00,34.0,29.0,30.10,ENE,63,0.0,1.0,82,0.15,,,0.63,,2013-01-16 06:12:00,
2013-01-16 01:22:00,34.0,29.0,30.11,ENE,59,1.0,5.0,82,0.13,,,0.64,,2013-01-16 06:22:00,
2013-01-16 01:32:00,34.0,31.0,30.10,ENE,58,2.0,4.0,88,0.14,,,0.69,,2013-01-16 06:32:00,
2013-01-16 01:43:00,34.0,31.0,30.10,ENE,58,2.0,4.0,88,0.14,,,0.69,,2013-01-16 06:43:00,
2013-01-16 01:53:00,34.0,29.0,30.11,NE,51,2.0,5.0,82,0.13,,,0.71,,2013-01-16 06:53:00,
2013-01-16 02:02:00,34.0,29.0,30.11,NE,48,2.0,5.0,82,0.13,,,0.74,,2013-01-16 07:02:00,
2013-01-16 02:12:00,34.0,29.0,30.11,NE,48,2.0,5.0,82,0.13,,,0.74,,2013-01-16 07:12:00,
2013-01-16 02:22:00,33.0,28.0,30.11,NE,46,2.0,4.0,82,0.12,,,0.75,,2013-01-16 07:22:00,
2013-01-16 02:33:00,33.0,28.0,30.10,NE,46,0.0,4.0,82,0.10,,,0.76,,2013-01-16 07:33:00,
2013-01-16 02:42:00,33.0,28.0,30.10,NE,46,0.0,4.0,82,0.10,,,0.76,,2013-01-16 07:42:00,
2013-01-16 02:52:00,34.0,29.0,30.09,NE,46,0.0,2.0,82,0.08,,,0.77,,2013-01-16 07:52:00,
2013-01-16 03:02:00,34.0,29.0,30.09,NE,46,0.0,1.0,82,0.05,,,0.77,,2013-01-16 08:02:00,
2013-01-16 03:12:00,34.0,29.0,30.09,NE,46,0.0,1.0,82,0.05,,,0.77,,2013-01-16 08:12:00,
2013-01-16 03:22:00,34.0,29.0,30.09,NE,46,0.0,1.0,82,0.03,,,0.78,,2013-01-16 08:22:00,
2013-01-16 03:32:00,34.0,29.0,30.06,NE,46,0.0,0.0,82,0.02,,,0.78,,2013-01-16 08:32:00,
2013-01-16 03:42:00,34.0,29.0,30.06,NE,46,0.0,0.0,82,0.02,,,0.78,,2013-01-16 08:42:00,
2013-01-16 03:53:00,34.0,29.0,30.06,NE,46,0.0,1.0,82,0.01,,,0.78,,2013-01-16 08:53:00,
2013-01-16 04:02:00,34.0,29.0,30.05,NE,46,0.0,3.0,82,0.00,,,0.78,,2013-01-16 09:02:00,
2013-01-16 04:12:00,34.0,29.0,30.05,NE,46,0.0,3.0,82,0.00,,,0.78,,2013-01-16 09:12:00,
2013-01-16 04:22:00,34.0,29.0,30.04,NE,46,0.0,2.0,82,0.00,,,0.78,,2013-01-16 09:22:00,
2013-01-16 04:32:00,34.0,29.0,30.04,NE,46,1.0,2.0,82,0.00,,,0.78,,2013-01-16 09:32:00,
2013-01-16 04:42:00,34.0,29.0,30.04,NE,46,1.0,2.0,82,0.00,,,0.78,,2013-01-16 09:42:00,
2013-01-16 04:53:00,34.0,29.0,30.04,NE,46,2.0,4.0,83,0.00,,,0.78,,2013-01-16 09:53:00,
2013-01-16 05:02:00,34.0,29.0,30.04,NE,45,3.0,6.0,83,0.01,,,0.79,,2013-01-16 10:02:00,
2013-01-16 05:12:00,34.0,29.0,30.04,NE,45,3.0,6.0,83,0.01,,,0.79,,2013-01-16 10:12:00,
2013-01-16 05:22:00,34.0,29.0,30.04,NE,42,3.0,5.0,83,0.01,,,0.79,,2013-01-16 10:22:00,
2013-01-16 05:32:00,34.0,29.0,30.04,NE,42,2.0,3.0,83,0.01,,,0.79,,2013-01-16 10:32:00,
2013-01-16 05:42:00,34.0,29.0,30.04,NE,42,2.0,3.0,83,0.01,,,0.79,,2013-01-16 10:42:00,
2013-01-16 05:53:00,34.0,29.0,30.03,NE,42,0.0,2.0,83,0.01,,,0.79,,2013-01-16 10:53:00,
2013-01-16 06:02:00,34.0,29.0,30.03,NE,42,0.0,0.0,83,0.00,,,0.79,,2013-01-16 11:02:00,
2013-01-16 06:12:00,34.0,29.0,30.03,NE,42,0.0,0.0,83,0.00,,,0.79,,2013-01-16 11:12:00,
2013-01-16 06:23:00,34.0,29.0,30.04,NE,42,0.0,2.0,83,0.00,,,0.79,,2013-01-16 11:23:00,
2013-01-16 06:33:00,34.0,29.0,30.03,NE,42,0.0,3.0,83,0.00,,,0.79,,2013-01-16 11:33:00,
2013-01-16 06:42:00,34.0,29.0,30.03,NE,42,0.0,3.0,83,0.00,,,0.79,,2013-01-16 11:42:00,
2013-01-16 06:53:00,34.0,29.0,30.02,NE,42,0.0,2.0,83,0.01,,,0.80,,2013-01-16 11:53:00,
2013-01-16 07:03:00,34.0,29.0,30.00,NE,42,0.0,2.0,83,0.02,,,0.81,,2013-01-16 12:03:00,
2013-01-16 07:13:00,34.0,29.0,30.00,NE,42,0.0,2.0,83,0.02,,,0.81,,2013-01-16 12:13:00,
2013-01-16 07:22:00,34.0,29.0,30.01,NE,42,1.0,2.0,83,0.02,,,0.81,,2013-01-16 12:22:00,
2013-01-16 07:33:00,34.0,29.0,30.00,NE,42,0.0,0.0,83,0.02,,,0.81,,2013-01-16 12:33:00,
2013-01-16 07:43:00,34.0,29.0,30.00,NE,42,0.0,0.0,83,0.02,,,0.81,,2013-01-16 12:43:00,
2013-01-16 07:53:00,34.0,29.0,30.00,NE,42,0.0,1.0,83,0.02,,,0.82,,2013-01-16 12:53:00,
2013-01-16 08:03:00,34.0,29.0,29.98,NE,42,1.0,2.0,83,0.01,,,0.82,,2013-01-16 13:03:00,
2013-01-16 08:12:00,34.0,29.0,29.98,NE,42,1.0,2.0,83,0.01,,,0.82,,2013-01-16 13:12:00,
2013-01-16 08:23:00,34.0,29.0,29.97,NE,42,1.0,3.0,83,0.01,,,0.82,,2013-01-16 13:23:00,
2013-01-16 08:33:00,34.0,29.0,29.96,NE,46,2.0,5.0,83,0.02,,,0.83,,2013-01-16 13:33:00,
2013-01-16 08:43:00,34.0,29.0,29.96,NE,46,2.0,5.0,83,0.02,,,0.83,,2013-01-16 13:43:00,
2013-01-16 08:53:00,35.0,30.0,30.00,NE,49,2.0,3.0,83,0.01,,,0.83,,2013-01-16 13:53:00,
2013-01-16 09:03:00,35.0,30.0,30.02,NE,48,2.0,4.0,83,0.02,,,0.84,,2013-01-16 14:03:00,
2013-01-16 09:12:00,35.0,30.0,30.02,NE,48,2.0,4.0,83,0.02,,,0.84,,2013-01-16 14:12:00,
2013-01-16 09:23:00,35.0,30.0,30.01,NE,48,0.0,1.0,83,0.03,,,0.85,,2013-01-16 14:23:00,
2013-01-16 09:33:00,35.0,30.0,30.01,NE,48,0.0,3.0,83,0.02,,,0.85,,2013-01-16 14:33:00,
2013-01-16 09:43:00,35.0,30.0,30.01,NE,48,0.0,3.0,83,0.02,,,0.85,,2013-01-16 14:43:00,
2013-01-16 09:53:00,35.0,30.0,30.01,NE,48,1.0,2.0,83,0.02,,,0.85,,2013-01-16 14:53:00,
2013-01-16 10:03:00,35.0,30.0,29.97,NE,49,2.0,4.0,83,0.02,,,0.86,,2013-01-16 15:03:00,
2013-01-16 10:12:00,35.0,30.0,29.97,NE,49,2.0,4.0,83,0.02,,,0.86,,2013-01-16 15:12:00,
2013-01-16 10:23:00,35.0,30.0,29.96,SSE,147,2.0,6.0,83,0.01,,,0.86,,2013-01-16 15:23:00,
2013-01-16 10:33:00,35.0,30.0,29.97,SSE,148,2.0,5.0,83,0.02,,,0.87,,2013-01-16 15:33:00,
2013-01-16 10:43:00,35.0,30.0,29.97,SSE,148,2.0,5.0,83,0.02,,,0.87,,2013-01-16 15:43:00,
2013-01-16 10:53:00,35.0,30.0,29.98,SSE,150,0.0,3.0,83,0.02,,,0.87,,2013-01-16 15:53:00,
2013-01-16 11:03:00,36.0,31.0,29.94,SSE,150,1.0,3.0,83,0.03,,,0.89,,2013-01-16 16:03:00,
2013-01-16 11:12:00,36.0,31.0,29.94,SSE,150,1.0,3.0,83,0.03,,,0.89,,2013-01-16 16:12:00,
2013-01-16 11:23:00,36.0,31.0,29.91,SE,146,1.0,8.0,83,0.03,,,0.89,,2013-01-16 16:23:00,
2013-01-16 11:33:00,36.0,31.0,29.88,South,177,2.0,8.0,83,0.02,,,0.89,,2013-01-16 16:33:00,
2013-01-16 11:43:00,36.0,31.0,29.88,South,177,2.0,8.0,83,0.02,,,0.89,,2013-01-16 16:43:00,
2013-01-16 11:53:00,36.0,31.0,29.89,SSW,206,0.0,5.0,83,0.02,,,0.89,,2013-01-16 16:53:00,
2013-01-16 12:03:00,36.0,31.0,29.85,SW,222,0.0,5.0,83,0.00,,,0.89,,2013-01-16 17:03:00,
2013-01-16 12:12:00,36.0,31.0,29.85,SW,222,0.0,5.0,83,0.00,,,0.89,,2013-01-16 17:12:00,
2013-01-16 12:23:00,36.0,31.0,29.87,SW,222,1.0,3.0,83,0.00,,,0.89,,2013-01-16 17:23:00,
2013-01-16 12:33:00,36.0,31.0,29.85,SW,222,0.0,3.0,83,0.00,,,0.89,,2013-01-16 17:33:00,
2013-01-16 12:43:00,36.0,31.0,29.85,SW,222,0.0,3.0,83,0.00,,,0.89,,2013-01-16 17:43:00,
2013-01-16 12:53:00,36.0,31.0,29.89,NNW,334,6.0,11.0,83,0.00,,,0.89,,2013-01-16 17:53:00,
2013-01-16 13:03:00,36.0,31.0,29.86,NNW,347,1.0,6.0,82,0.00,,,0.89,,2013-01-16 18:03:00,
2013-01-16 13:13:00,36.0,31.0,29.86,NNW,347,1.0,6.0,82,0.00,,,0.89,,2013-01-16 18:13:00,
2013-01-16 13:23:00,36.0,31.0,29.88,North,355,3.0,8.0,82,0.00,,,0.89,,2013-01-16 18:23:00,
2013-01-16 13:33:00,36.0,31.0,29.87,North,5,1.0,8.0,82,0.00,,,0.89,,2013-01-16 18:33:00,
2013-01-16 13:42:00,36.0,31.0,29.87,North,5,1.0,8.0,82,0.00,,,0.89,,2013-01-16 18:42:00,
2013-01-16 13:53:00,36.0,31.0,29.87,North,5,1.0,2.0,82,0.00,,,0.89,,2013-01-16 18:53:00,
2013-01-16 14:03:00,36.0,31.0,29.87,NNE,19,1.0,4.0,82,0.00,,,0.89,,2013-01-16 19:03:00,
2013-01-16 14:12:00,36.0,31.0,29.87,NNE,19,1.0,4.0,82,0.00,,,0.89,,2013-01-16 19:12:00,
2013-01-16 14:23:00,36.0,31.0,29.88,NNE,22,0.0,4.0,82,0.00,,,0.89,,2013-01-16 19:23:00,
2013-01-16 14:33:00,37.0,32.0,29.87,NNE,22,0.0,0.0,83,0.00,,,0.89,,2013-01-16 19:33:00,
2013-01-16 14:43:00,37.0,32.0,29.87,NNE,22,0.0,0.0,83,0.00,,,0.89,,2013-01-16 19:43:00,
2013-01-16 14:53:00,37.0,32.0,29.88,NNE,22,2.0,2.0,83,0.00,,,0.89,,2013-01-16 19:53:00,
2013-01-16 15:03:00,37.0,32.0,29.90,NNE,17,2.0,4.0,83,0.00,,,0.89,,2013-01-16 20:03:00,
2013-01-16 15:12:00,37.0,32.0,29.90,NNE,17,2.0,4.0,83,0.00,,,0.89,,2013-01-16 20:12:00,
2013-01-16 15:23:00,37.0,32.0,29.89,NNE,15,0.0,2.0,82,0.00,,,0.89,,2013-01-16 20:23:00,
2013-01-16 15:33:00,37.0,32.0,29.91,NNE,15,1.0,3.0,83,0.00,,,0.89,,2013-01-16 20:33:00,
2013-01-16 15:43:00,37.0,32.0,29.91,NNE,15,1.0,3.0,83,0.00,,,0.89,,2013-01-16 20:43:00,
2013-01-16 15:53:00,37.0,32.0,29.90,NNE,15,0.0,3.0,82,0.00,,,0.89,,2013-01-16 20:53:00,
2013-01-16 16:03:00,37.0,32.0,29.90,NNE,15,1.0,2.0,82,0.00,,,0.89,,2013-01-16 21:03:00,
2013-01-16 16:12:00,37.0,32.0,29.90,NNE,15,1.0,2.0,82,0.00,,,0.89,,2013-01-16 21:12:00,
2013-01-16 16:22:00,37.0,32.0,29.91,NNE,15,0.0,3.0,82,0.00,,,0.89,,2013-01-16 21:22:00,
2013-01-16 16:33:00,37.0,32.0,29.93,NNE,15,0.0,2.0,83,0.00,,,0.89,,2013-01-16 21:33:00,
2013-01-16 16:43:00,37.0,32.0,29.93,NNE,15,0.0,2.0,83,0.00,,,0.89,,2013-01-16 21:43:00,
2013-01-16 16:53:00,37.0,32.0,29.93,NNE,15,0.0,2.0,83,0.00,,,0.89,,2013-01-16 21:53:00,
2013-01-16 17:03:00,37.0,32.0,29.92,NNE,15,1.0,2.0,83,0.00,,,0.89,,2013-01-16 22:03:00,
2013-01-16 17:12:00,37.0,32.0,29.92,NNE,15,1.0,2.0,83,0.00,,,0.89,,2013-01-16 22:12:00,
2013-01-16 17:23:00,38.0,33.0,29.92,NNE,15,1.0,3.0,83,0.00,,,0.89,,2013-01-16 22:23:00,
2013-01-16 17:33:00,38.0,33.0,29.92,NNE,15,1.0,3.0,83,0.00,,,0.89,,2013-01-16 22:33:00,
2013-01-16 17:43:00,38.0,33.0,29.92,NNE,15,1.0,3.0,83,0.00,,,0.89,,2013-01-16 22:43:00,
2013-01-16 17:53:00,38.0,33.0,29.93,North,11,3.0,5.0,83,0.00,,,0.89,,2013-01-16 22:53:00,
2013-01-16 18:03:00,38.0,33.0,29.94,North,5,1.0,4.0,83,0.00,,,0.89,,2013-01-16 23:03:00,
2013-01-16 18:12:00,38.0,33.0,29.93,North,5,0.0,1.0,83,0.00,,,0.89,,2013-01-16 23:12:00,
2013-01-16 18:23:00,38.0,33.0,29.93,North,5,0.0,1.0,83,0.00,,,0.89,,2013-01-16 23:23:00,
2013-01-16 18:32:00,37.0,32.0,29.93,North,5,0.0,0.0,82,0.00,,,0.89,,2013-01-16 23:32:00,
2013-01-16 18:42:00,37.0,32.0,29.93,North,5,0.0,0.0,82,0.00,,,0.89,,2013-01-16 23:42:00,
2013-01-16 18:53:00,37.0,32.0,29.93,North,5,0.0,0.0,83,0.00,,,0.89,,2013-01-16 23:53:00,
2013-01-16 19:02:00,37.0,32.0,29.94,North,5,0.0,0.0,83,0.00,,,0.89,,2013-01-17 00:02:00,
2013-01-16 19:12:00,37.0,32.0,29.94,North,5,0.0,0.0,83,0.00,,,0.89,,2013-01-17 00:12:00,
2013-01-16 19:22:00,37.0,32.0,29.94,North,5,0.0,2.0,83,0.00,,,0.89,,2013-01-17 00:22:00,
2013-01-16 19:32:00,38.0,33.0,29.95,North,5,0.0,1.0,83,0.00,,,0.89,,2013-01-17 00:32:00,
2013-01-16 19:42:00,38.0,33.0,29.95,North,5,0.0,1.0,83,0.00,,,0.89,,2013-01-17 00:42:00,
2013-01-16 19:53:00,38.0,33.0,29.96,North,5,0.0,0.0,83,0.00,,,0.89,,2013-01-17 00:53:00,
2013-01-16 20:02:00,38.0,33.0,29.95,North,5,0.0,0.0,83,0.00,,,0.89,,2013-01-17 01:02:00,
2013-01-16 20:12:00,38.0,33.0,29.95,North,5,0.0,0.0,83,0.00,,,0.89,,2013-01-17 01:12:00,
2013-01-16 20:22:00,38.0,33.0,29.96,North,5,1.0,2.0,83,0.00,,,0.87,,2013-01-17 01:22:00,
2013-01-16 20:33:00,38.0,33.0,29.96,North,5,1.0,4.0,83,0.00,,,0.87,,2013-01-17 01:33:00,
2013-01-16 20:42:00,38.0,33.0,29.96,North,5,1.0,4.0,83,0.00,,,0.87,,2013-01-17 01:42:00,
2013-01-16 20:52:00,39.0,34.0,29.96,North,5,1.0,2.0,83,0.00,,,0.87,,2013-01-17 01:52:00,
2013-01-16 21:02:00,39.0,34.0,29.95,North,360,2.0,5.0,83,0.00,,,0.87,,2013-01-17 02:02:00,
2013-01-16 21:12:00,39.0,34.0,29.95,North,360,2.0,5.0,83,0.00,,,0.87,,2013-01-17 02:12:00,
2013-01-16 21:22:00,39.0,34.0,29.94,NNW,342,0.0,2.0,82,0.00,,,0.79,,2013-01-17 02:22:00,
2013-01-16 21:32:00,39.0,34.0,29.95,NNW,342,0.0,0.0,83,0.00,,,0.79,,2013-01-17 02:32:00,
2013-01-16 21:42:00,39.0,34.0,29.95,NNW,342,0.0,0.0,83,0.00,,,0.79,,2013-01-17 02:42:00,
2013-01-16 21:52:00,39.0,34.0,29.95,NNW,342,0.0,0.0,83,0.00,,,0.79,,2013-01-17 02:52:00,
2013-01-16 22:03:00,39.0,34.0,29.96,NNW,342,0.0,0.0,83,0.00,,,0.79,,2013-01-17 03:03:00,
2013-01-16 22:12:00,39.0,34.0,29.96,NNW,342,0.0,0.0,83,0.00,,,0.79,,2013-01-17 03:12:00,
2013-01-16 22:22:00,39.0,34.0,29.96,NNW,342,1.0,2.0,83,0.00,,,0.68,,2013-01-17 03:22:00,
2013-01-16 22:32:00,39.0,34.0,29.96,NNW,342,0.0,1.0,83,0.00,,,0.68,,2013-01-17 03:32:00,
2013-01-16 22:43:00,39.0,34.0,29.96,NNW,342,0.0,1.0,83,0.00,,,0.68,,2013-01-17 03:43:00,
2013-01-16 22:53:00,39.0,34.0,29.96,NNW,342,1.0,2.0,83,0.00,,,0.68,,2013-01-17 03:53:00,
2013-01-16 23:02:00,40.0,35.0,29.95,NNW,336,2.0,3.0,82,0.00,,,0.68,,2013-01-17 04:02:00,
2013-01-16 23:12:00,40.0,34.0,29.96,NNW,336,0.0,4.0,80,0.00,,,0.56,,2013-01-17 04:12:00,
2013-01-16 23:22:00,40.0,34.0,29.96,NNW,336,0.0,4.0,80,0.00,,,0.56,,2013-01-17 04:22:00,
2013-01-16 23:33:00,41.0,34.0,29.96,NW,314,1.0,4.0,77,0.00,,,0.56,,2013-01-17 04:33:00,
2013-01-16 23:42:00,41.0,34.0,29.96,NW,314,1.0,4.0,77,0.00,,,0.56,,2013-01-17 04:42:00,
2013-01-16 23:52:00,41.0,33.0,29.96,NW,313,0.0,3.0,74,0.00,,,0.56,,2013-01-17 04:52:00,